Location: Newark
(37.3394°N, 6.0261°W)
Time: 22:23:56
(UTC+00:00)

Envisat - Pass Details

Date: 21 March 2019
Orbit: 764 x 766 km, 98.2° (Epoch: 23 April)

Event Time Altitude Azimuth Distance (km) Brightness Sun altitude
Rises 19:12:13 0° 172° (S) 3,217 6.1 -7.9°
Reaches altitude 10° 19:14:32 10° 174° (S) 2,295 5.3 -8.4°
Maximum altitude 19:19:34 70° 258° (WSW) 813 3.4 -9.4°
Drops below altitude 10° 19:24:39 10° 343° (NNW) 2,310 5.8 -10.4°
Sets 19:26:59 0° 345° (NNW) 3,240 6.6 -10.8°
